#timestamp,LO_Frequency,Hit,StdDev 
1556190015.6,286047003.4,Y
1556190035.4,286047002.4,P
1556190055.3,286047002.8,P
1556190075.1,286047002.3,P
1556190076.0,286047002.3,Y
1556190095.8,286046998.2,P
1556190115.7,286047001.1,N
1556190135.5,286047000.4,N
1556190155.3,286047002.8,N
1556190175.1,286047000.4,N
1556190195.9,286047000.2,N
1556190215.7,286047000.1,N
1556190235.5,286047000.1,N
1556190255.4,286046999.8,N
1556190275.2,286047002.8,N
1556190295.0,286047002.1,N
1556190295.9,286047002.1,N
1556190315.8,286047002.2,N
1556190335.6,286046999.8,N
1556190355.4,286046999.9,N
1556190375.3,286047000.3,N
1556190395.1,286047000.7,N
1556190396.0,286047000.7,N
1556190415.8,286047000.6,N
1556190435.6,286047001.1,N
1556190455.5,286047000.7,N
1556190475.3,286046998.3,N
1556190495.1,286046998.1,N
1556190515.9,286046998.4,N
1556190535.7,286046999.5,N
1556190555.5,286046996.9,N
1556190575.4,286046996.9,N
1556190595.2,286046997.2,N
1556190615.0,286046997.3,N
1556190615.9,286046997.3,N
1556190635.8,286046996.9,N
1556190655.6,286046996.6,N
1556190675.4,286046997.2,N
1556190695.2,286046996.8,N
1556190715.1,286046997.1,N
1556190716.0,286046997.1,N
1556190735.8,286046994.9,N
1556190755.6,286046995.1,N
1556190775.5,286046995.1,N
1556190795.3,286046996.2,N
1556190815.1,286046995.8,N
1556190835.9,286046996.0,N
1556190855.7,286046993.5,Y
1556190875.5,286046998.0,P
1556190895.4,286046994.9,P
1556190915.2,286046995.2,P
1556190935.0,286046993.5,Y
1556190935.9,286046993.5,P
1556190955.8,286046997.4,N
1556190975.6,286046996.8,N
1556190995.4,286046997.3,N
1556191015.3,286046994.9,Y
1556191035.1,286046999.1,P
1556191036.0,286046999.1,N
1556191055.8,286046999.3,N
1556191075.7,286046999.2,N
1556191095.5,286046997.1,N
1556191115.3,286046996.7,N
1556191135.2,286046997.8,N
1556191155.9,286046995.1,Y
1556191175.7,286046999.5,P
1556191195.6,286046997.6,P
1556191215.4,286046997.6,P
1556191235.2,286046995.7,Y
1556191255.1,286046997.9,P
1556191256.0,286046997.9,P
1556191275.8,286046995.0,P
1556191295.6,286046996.2,N
1556191315.5,286046993.4,Y
1556191335.3,286046996.8,P
1556191355.1,286046997.9,P
1556191375.9,286046995.5,P
1556191395.7,286046995.1,Y
1556191415.5,286046998.9,P
1556191435.4,286046997.3,N
1556191455.2,286046997.3,P
1556191475.0,286046997.6,Y
1556191475.9,286046997.6,P
1556191495.8,286046996.6,P
1556191515.6,286046997.3,P
1556191535.4,286046995.3,Y
1556191555.3,286046998.7,P
1556191575.1,286046999.6,N
1556191576.0,286046999.6,N
1556191595.8,286046997.3,N
1556191615.7,286046995.2,Y
1556191635.5,286046997.8,P
1556191655.3,286046995.1,P
1556191675.1,286046995.5,P
1556191695.9,286046993.5,Y
1556191715.7,286046997.1,P
1556191735.6,286046996.5,P
1556191755.4,286046997.1,P
1556191775.2,286046997.4,Y
1556191795.0,286047000.7,P
1556191796.0,286047000.7,N
1556191815.8,286046998.6,N
1556191835.6,286046998.9,N
1556191855.4,286046998.9,N
1556191875.3,286046996.8,N
1556191895.1,286046997.0,N
1556191915.8,286046994.9,Y
1556191935.7,286046996.8,P
1556191955.5,286046997.9,N
1556191975.3,286046998.0,N
1556191995.2,286046995.7,Y
1556192015.0,286046997.4,P
1556192015.9,286046997.4,P
1556192035.7,286046995.1,P
1556192055.6,286046995.3,Y
1556192075.4,286046999.5,P
1556192095.2,286046997.4,N
1556192115.1,286046997.8,N
1556192116.0,286046997.8,N
1556192135.8,286046996.4,Y
1556192155.6,286046996.7,P
1556192175.5,286046997.4,P
1556192195.3,286046996.2,P
1556192215.1,286046995.5,Y
1556192235.9,286046996.9,P
1556192255.7,286046997.8,P
1556192275.5,286046995.9,P
1556192295.4,286046996.3,Y
1556192315.2,286046996.7,P
1556192335.0,286046997.3,P
1556192335.9,286046997.3,P
1556192355.8,286046994.9,Y
1556192375.6,286046999.5,P
1556192395.4,286046996.9,N
1556192415.3,286046997.8,N
1556192435.1,286046995.4,Y
1556192455.8,286046996.5,P
1556192475.7,286046996.8,P
1556192495.5,286046996.8,P
1556192515.3,286046995.2,Y
1556192535.2,286046998.8,P
1556192555.9,286046999.4,N
1556192575.7,286046996.7,P
1556192595.6,286046995.5,Y
1556192615.4,286046996.7,P
1556192635.2,286046997.6,P
1556192655.1,286046995.2,P
1556192656.0,286046995.2,Y
1556192675.8,286046999.3,P
1556192695.6,286046999.6,N
1556192715.5,286046996.7,N
1556192735.3,286046997.3,N
1556192755.1,286046997.8,N
1556192775.9,286046995.3,Y
1556192795.7,286046996.8,P
1556192815.5,286046995.4,P
1556192835.4,286046995.7,P
1556192855.2,286046995.8,Y
1556192875.0,286046998.7,P
1556192875.9,286046998.7,N
1556192895.8,286046998.5,N
1556192915.6,286046998.3,N
1556192935.4,286046999.4,N
1556192955.3,286046999.2,N
1556192975.1,286046999.6,N
1556192976.0,286046999.6,N
1556192995.8,286046997.0,Y
1556193015.7,286046999.0,P
1556193035.5,286046998.2,P
1556193055.3,286046998.5,P
1556193075.2,286046999.1,Y
1556193095.9,286047001.0,P
1556193115.7,286046999.9,N
1556193135.6,286047001.1,N
1556193155.4,286047000.4,N
1556193175.2,286046998.1,N
1556193195.0,286047001.2,N
1556193195.9,286047001.2,N
1556193215.8,286046998.2,N
1556193235.6,286046998.5,N
1556193255.4,286046998.5,N
1556193275.3,286046998.2,N
1556193295.1,286046998.2,N
1556193315.8,286046998.3,N
1556193335.7,286046998.8,N
1556193355.5,286046998.8,N
1556193375.3,286046998.5,N
1556193395.2,286046999.3,N
1556193415.9,286046999.4,N
1556193435.7,286046998.8,N
1556193455.6,286046996.5,Y
1556193475.4,286046999.2,P
1556193495.2,286046997.1,P
1556193515.0,286046996.5,P
1556193515.9,286046996.5,N
1556193535.8,286046999.2,N
1556193555.6,286046997.3,N
1556193575.4,286046999.6,N
1556193595.3,286046997.3,N
